New Philadelphia, OH

11:26 AM EDT on August 22, 2017 (GMT -0400)
Clever

Weather History for KPHD - January, 2014

Change the Weather History Date:

Tuesday, January 7, 2014

  Actual Average Record
Temperature  
Mean Temperature 0 °F 29 °F  
Max Temperature 8 °F 37 °F 60 °F (1998)
Min Temperature -9 °F 21 °F -9 °F (2014)
Degree Days  
Heating Degree Days 65 36  
Month to date heating degree days 315 252  
Since 1 July heating degree days 2516 2413  
Cooling Degree Days 0 0  
Month to date cooling degree days 0 0  
Year to date cooling degree days 0 0  
Moisture  
Dew Point -12 °F    
Average Humidity 63    
Maximum Humidity 69    
Minimum Humidity 57    
Precipitation  
Precipitation T in 0.09 in 0.48 in (2007)
Month to date precipitation 0.44 0.71  
Year to date precipitation 0.44 0.71  
Sea Level Pressure  
Sea Level Pressure 30.39 in    
Wind  
Wind Speed 10 mph (SW)    
Max Wind Speed 18 mph    
Max Gust Speed 29 mph    
Visibility 7 miles    
Events Snow    
T = Trace of Precipitation, MM = Missing Value Source: NWS Daily Summary

Daily Weather History Graph

Daily Weather History Graph

Search for Another Location

Airport or City:

Trip Planner

Search our weather history database for the weather conditions in past years. The results will help you decide how hot, cold, wet, or windy it might be!

Date:

Astronomy

Jan. 07, 2014 Rise Set
Actual Time 7:48 AM EST 5:15 PM EST
Civil Twilight 7:18 AM EST 5:45 PM EST
Nautical Twilight 6:44 AM EST 6:19 PM EST
Astronomical Twilight 6:11 AM EST 6:52 PM EST
Moon 11:35 AM EST (1/7) No Moon Set
Length of Visible Light 10h 27m
Length of Day
9h 26m
Waxing Crescent, 45% of the Moon is Illuminated
Jan 7
Waxing Crescent
Jan 7
First Quarter
Jan 15
Full
Jan 24
Last Quarter
Jan 30
New

Hourly Weather History & Observations

Time (EST) Temp. Windchill Dew Point Humidity Pressure Visibility Wind Dir Wind Speed Gust Speed Precip Events Conditions
12:53 AM -9.0 °F -29.3 °F -20.0 °F 59% 30.32 in 9.0 mi WSW 12.7 mph 26.5 mph 0.00 in   Overcast
1:53 AM -8.0 °F -29.6 °F -18.9 °F 59% 30.33 in 7.0 mi WSW 15.0 mph 25.3 mph N/A   Overcast
2:10 AM -7.6 °F -28.3 °F -16.6 °F 65% 30.26 in 2.0 mi WSW 13.8 mph 24.2 mph 0.00 in Snow Light Snow
2:50 AM -7.6 °F -27.5 °F -18.4 °F 59% 30.28 in 7.0 mi WSW 12.7 mph 24.2 mph 0.00 in   Overcast
2:53 AM -8.0 °F -28.8 °F -18.9 °F 59% 30.36 in 9.0 mi WSW 13.8 mph 24.2 mph 0.00 in   Overcast
3:39 AM -7.6 °F -25.7 °F -16.6 °F 65% 30.27 in 2.5 mi WSW 10.4 mph 20.7 mph N/A   Haze
3:48 AM -7.6 °F -29.1 °F -16.6 °F 65% 30.27 in 4.0 mi WSW 15.0 mph 23.0 mph N/A   Haze
3:53 AM -8.0 °F -23.9 °F -17.0 °F 65% 30.35 in 4.0 mi SW 8.1 mph 23.0 mph N/A   Haze
4:53 AM -8.0 °F -27.1 °F -18.0 °F 61% 30.34 in 7.0 mi WSW 11.5 mph 19.6 mph N/A   Overcast
5:53 AM -7.1 °F -26.8 °F -17.0 °F 62% 30.36 in 5.0 mi WSW 12.7 mph 20.7 mph N/A   Haze
6:53 AM -7.1 °F -26.8 °F -16.1 °F 65% 30.39 in 6.0 mi WSW 12.7 mph 19.6 mph N/A   Haze
7:53 AM -7.1 °F -23.9 °F -16.1 °F 65% 30.40 in 6.0 mi WSW 9.2 mph - N/A   Haze
8:53 AM -6.0 °F -21.5 °F -15.0 °F 65% 30.42 in 10.0 mi SW 8.1 mph - N/A   Overcast
9:53 AM -4.0 °F -22.1 °F -14.1 °F 62% 30.44 in 6.0 mi SW 11.5 mph 23.0 mph N/A   Haze
10:53 AM -2.0 °F -19.6 °F -11.9 °F 63% 30.46 in 2.5 mi WSW 11.5 mph 23.0 mph 0.00 in   Haze
11:03 AM -2.2 °F -20.7 °F -11.2 °F 66% 30.38 in 4.0 mi SW 12.7 mph 20.7 mph N/A   Haze
11:53 AM -0.0 °F -19.4 °F -11.9 °F 57% 30.45 in 9.0 mi WSW 15.0 mph 27.6 mph 0.00 in   Overcast
12:53 PM 1.9 °F -14.7 °F -9.9 °F 58% 30.41 in 8.0 mi WSW 11.5 mph 19.6 mph N/A   Overcast
1:53 PM 1.9 °F -13.8 °F -8.0 °F 63% 30.40 in 4.0 mi SW 10.4 mph 17.3 mph N/A   Haze
2:29 PM 3.2 °F -12.2 °F -9.4 °F 56% 30.33 in 10.0 mi West 10.4 mph 20.7 mph N/A   Mostly Cloudy
2:53 PM 3.9 °F -10.4 °F -8.0 °F 58% 30.42 in 10.0 mi WSW 9.2 mph 17.3 mph N/A   Overcast
3:11 PM 3.2 °F -10.3 °F -7.6 °F 61% 30.33 in 5.0 mi SW 8.1 mph - N/A   Haze
3:53 PM 3.9 °F -13.0 °F -7.1 °F 60% 30.43 in 10.0 mi SW 12.7 mph 19.6 mph N/A   Overcast
4:35 PM 5.0 °F -5.6 °F -5.8 °F 61% 30.35 in 10.0 mi Variable 5.8 mph - N/A   Scattered Clouds
4:53 PM 3.9 °F -10.4 °F -6.0 °F 64% 30.43 in 9.0 mi SW 9.2 mph 16.1 mph N/A   Mostly Cloudy
5:53 PM 3.9 °F -9.4 °F -6.0 °F 64% 30.43 in 10.0 mi SW 8.1 mph - N/A   Partly Cloudy
6:53 PM 5.0 °F -2.1 °F -6.0 °F 61% 30.43 in 10.0 mi SW 3.5 mph - N/A   Clear
7:53 PM 6.1 °F -5.6 °F -5.1 °F 60% 30.45 in 10.0 mi WSW 6.9 mph - N/A   Overcast
8:53 PM 7.0 °F -7.5 °F -4.0 °F 61% 30.45 in 10.0 mi SW 10.4 mph - N/A   Overcast
9:53 PM 7.0 °F -1.7 °F -4.0 °F 61% 30.46 in 10.0 mi SW 4.6 mph - N/A   Overcast
10:53 PM 6.1 °F - -4.0 °F 63% 30.46 in 10.0 mi Calm Calm - N/A   Clear
11:53 PM 6.1 °F - -4.0 °F 63% 30.47 in 10.0 mi Calm Calm - N/A   Clear